SINOD-D 1

Last updated on Wed Oct 29 2025 00:03:53 GMT+0000 (Coordinated Universal Time)

1 40968U 15058E 25301.25879816 .00004721 00000+0 39462-3 0 9993 2 40968 64.7754 263.9570 0129083 145.5831 215.3730 14.93428166 81996
UTC large
Height (km)
Speed (km/s)
/
Latitude / Longitude
Inclination (degrees)
Orbital Period (minutes)
Azimuth
Elevation
Range (km)
Doppler Factor

Next 0 passes for location: London (51.5072 / 0.1276)

Sorry there are no passes over London.